Satellite: AO-27
Catalog number: 22825
Epoch time:      06207.51296303
Element set:    0459
Inclination:      098.2843 deg
RA of node:       187.4176 deg
Eccentricity:    0.0008905
Arg of perigee:   140.4627 deg
Mean anomaly:     219.7210 deg
Mean motion:   14.29179025 rev/day
Decay rate:        1.8e-07 rev/day^2
Epoch rev:           66897
Checksum:              322

Satellite: IO-26
Catalog number: 22826
Epoch time:      06207.54606653
Element set:    0150
Inclination:      098.2790 deg
RA of node:       188.6424 deg
Eccentricity:    0.0009452
Arg of perigee:   137.6498 deg
Mean anomaly:     222.5418 deg
Mean motion:   14.29422754 rev/day
Decay rate:       -5.0e-08 rev/day^2
Epoch rev:           66905
Checksum:              318

Satellite: PO-28
Catalog number: 22829
Epoch time:      06208.57029550
Element set:     432
Inclination:      098.2679 deg
RA of node:       190.8165 deg
Eccentricity:    0.0010563
Arg of perigee:   111.3144 deg
Mean anomaly:     248.9177 deg
Mean motion:   14.30117455 rev/day
Decay rate:       -1.8e-07 rev/day^2
Epoch rev:           66941
Checksum:              308

Satellite: TO-31
Catalog number: 25396
Epoch time:      06207.73017555
Element set:    0586
Inclination:      098.4765 deg
RA of node:       266.6418 deg
Eccentricity:    0.0003520
Arg of perigee:   084.1034 deg
Mean anomaly:     276.0538 deg
Mean motion:   14.23708641 rev/day
Decay rate:      -1.24e-06 rev/day^2
Epoch rev:           41797
Checksum:              311

Satellite: GO-32
Catalog number: 25397
Epoch time:      06207.70301136
Element set:    0071
Inclination:      098.4652 deg
RA of node:       263.2761 deg
Eccentricity:    0.0002145
Arg of perigee:   091.5122 deg
Mean anomaly:     268.6313 deg
Mean motion:   14.23107670 rev/day
Decay rate:       -7.3e-07 rev/day^2
Epoch rev:           41786
Checksum:              276

Satellite: UO-36
Catalog number: 25693
Epoch time:      06207.94187638
Element set:    0102
Inclination:      064.5591 deg
RA of node:       120.6068 deg
Eccentricity:    0.0022753
Arg of perigee:   327.1908 deg
Mean anomaly:     032.7740 deg
Mean motion:   14.78606520 rev/day
Decay rate:      -1.31e-06 rev/day^2
Epoch rev:           39166
Checksum:              303

Satellite: MO-46
Catalog number: 26548
Epoch time:      06208.84052150
Element set:     554
Inclination:      064.5580 deg
RA of node:       105.9964 deg
Eccentricity:    0.0046670
Arg of perigee:   241.3107 deg
Mean anomaly:     118.3301 deg
Mean motion:   14.82996635 rev/day
Decay rate:       -8.5e-07 rev/day^2
Epoch rev:           31543
Checksum:              304

Satellite: NO-44
Catalog number: 26931
Epoch time:      06208.65142839
Element set:     361
Inclination:      067.0517 deg
RA of node:       263.4532 deg
Eccentricity:    0.0006460
Arg of perigee:   253.5400 deg
Mean anomaly:     106.4991 deg
Mean motion:   14.29447369 rev/day
Decay rate:       1.21e-06 rev/day^2
Epoch rev:           25171
Checksum:              288

Satellite: SO-50
Catalog number: 27607
Epoch time:      06207.79623663
Element set:      80
Inclination:      064.5591 deg
RA of node:       352.8532 deg
Eccentricity:    0.0039636
Arg of perigee:   132.5171 deg
Mean anomaly:     227.9255 deg
Mean motion:   14.71157654 rev/day
Decay rate:        3.0e-07 rev/day^2
Epoch rev:           19325
Checksum:              304

Satellite: CO-57
Catalog number: 27848
Epoch time:      06207.58890212
Element set:     778
Inclination:      098.7191 deg
RA of node:       214.6451 deg
Eccentricity:    0.0009459
Arg of perigee:   320.0609 deg
Mean anomaly:     039.9870 deg
Mean motion:   14.20275216 rev/day
Decay rate:        5.5e-07 rev/day^2
Epoch rev:           15923
Checksum:              325

Satellite: AO-51
Catalog number: 28375
Epoch time:      06207.59954240
Element set:    0589
Inclination:      098.1612 deg
RA of node:       257.8335 deg
Eccentricity:    0.0085044
Arg of perigee:   087.9497 deg
Mean anomaly:     273.1428 deg
Mean motion:   14.40527449 rev/day
Decay rate:        1.3e-07 rev/day^2
Epoch rev:           10884
Checksum:              334

Satellite: XO-53
Catalog number: 28894
Epoch time:      06208.76158108
Element set:     610
Inclination:      098.1615 deg
RA of node:       106.4313 deg
Eccentricity:    0.0018608
Arg of perigee:   048.4529 deg
Mean anomaly:     311.8278 deg
Mean motion:   14.59491770 rev/day
Decay rate:        2.1e-07 rev/day^2
Epoch rev:            3989
Checksum:              321

Satellite: CO-56
Catalog number: 28941
Epoch time:      06208.89483598
Element set:     155
Inclination:      098.1732 deg
RA of node:       231.5670 deg
Eccentricity:    0.0274836
Arg of perigee:   329.3625 deg
Mean anomaly:     029.1811 deg
Mean motion:   15.26318815 rev/day
Decay rate:     1.5679e-04 rev/day^2
Epoch rev:            2375
Checksum:              345

/EX
SB KEPS @ AMSAT  $ORB06208.W
Orbital Elements  06208.WEATHER

HR AMSAT ORBITAL ELEMENTS FOR WEATHER SATELLITES
FROM WA5QGD FORT WORTH,TX July 27, 2006
Send SUBSCRIBE KEPS/UNSUBSCRIBE KEPS to majordomo@amsat.org only
BID: ORB06208.W
TO ALL RADIO AMATEURS BT

Satellite: NOAA-10
Catalog number: 16969
Epoch time:      06207.61198047
Element set:    0288
Inclination:      098.7588 deg
RA of node:       219.3285 deg
Eccentricity:    0.0013087
Arg of perigee:   038.9462 deg
Mean anomaly:     321.2633 deg
Mean motion:   14.27299692 rev/day
Decay rate:       -5.0e-08 rev/day^2
Epoch rev:           03278
Checksum:              336

